Regional Weather Roundup
Issued by NWS

Home | Current Version | Previous Version | Text Only | Print | Product List | Glossary Off
Versions: 1 2 3 4 5 6 7 8 9 10 11 12 13 14 15 16 17 18 19 20 21 22 23 24 25 26 27 28 29 30 31 32 33 34 35 36 37 38 39 40 41 42 43 44 45 46 47 48 49 50

299
ASUS43 KLMK 210910
RWRKY
KENTUCKY REGIONAL WEATHER ROUNDUP
NATIONAL WEATHER SERVICE LOUISVILLE KY
500 AM EDT THU SEP 21 2017

NOTE "FAIR" INDICATES FEW OR NO CLOUDS BELOW 12,000 FEET
WITH NO SIGNIFICANT WEATHER AND/OR OBSTRUCTIONS TO VISIBILITY.

KYZ001>023-026-027-061>063-070>075-211000-
WESTERN AND SOUTH CENTRAL KENTUCKY

CITY           SKY/WX    TMP DP  RH WIND       PRES   REMARKS
PADUCAH        CLEAR     76  70  82 SW3       30.00S
HENDERSON      CLEAR     70  69  97 CALM      30.02S
OWENSBORO      CLEAR     72  70  93 SE3       30.03S
HOPKINSVILLE   CLEAR     68  68 100 CALM      30.03R
BOWLING GREEN  CLEAR     68  67  96 CALM      30.05R
GLASGOW        CLEAR    N/A N/A N/A CALM      30.06R HAZE
$$

KYZ024-025-028>034-038-045-046-053-211000-
NORTH CENTRAL KENTUCKY

CITY           SKY/WX    TMP DP  RH WIND       PRES   REMARKS
LOUISVILLE/SDF PTCLDY    73  70  90 E5        30.03F
LOUISVILLE/LOU CLEAR     69  69 100 CALM      30.04F
FORT KNOX      CLEAR     66  66 100 CALM      30.03F FOG
$$

KYZ035>037-039>044-047>052-055>060-089>105-211000-
NORTHEAST KENTUCKY

CITY           SKY/WX    TMP DP  RH WIND       PRES   REMARKS
LEXINGTON      CLEAR     66  63  90 SE3       30.08S FOG
COVINGTON      PTCLDY    68  68 100 CALM      30.06S
FRANKFORT      FOG       65  63  93 CALM      30.06R VSB 3/4
$$

KYZ054-064>069-076>088-106>120-211000-
SOUTHEAST KENTUCKY

CITY           SKY/WX    TMP DP  RH WIND       PRES   REMARKS
JACKSON        CLEAR     68  65  90 CALM      30.10S
LONDON         PTCLDY    65  63  93 CALM      30.09S FOG
SOMERSET       FOG       63  63 100 CALM      30.10R VSB 1/2
MIDDLESBORO    FOG       64  64 100 CALM      30.12R VSB 3/4
MONTICELLO     FOG       62  62 100 CALM      30.10R VSB 1/4
$$





USA.gov is the U.S. government's official web portal to all federal, state and local government web resources and services.